Waarnemingen

Advertentie
Mijn weer
Blois, Frankrijk (7245): temperatuur & dauwpunt: 15.08.2018 06:00:00 - 21.08.2018 06:00:00 (CEST)Blois, Frankrijk (7245): temperatuur 5cm: 15.08.2018 06:00:00 - 21.08.2018 06:00:00 (CEST)Blois, Frankrijk (7245): temperatuur -20cm & temperatuur -100cm: 15.08.2018 06:00:00 - 21.08.2018 06:00:00 (CEST)Blois, Frankrijk (7245): windsnelheid & windstoten: 15.08.2018 06:00:00 - 21.08.2018 06:00:00 (CEST)Blois, Frankrijk (7245): windrichting: 15.08.2018 06:00:00 - 21.08.2018 06:00:00 (CEST)Blois, Frankrijk (7245): luchtdruk: 15.08.2018 06:00:00 - 21.08.2018 06:00:00 (CEST)Blois, Frankrijk (7245): zicht: 15.08.2018 06:00:00 - 21.08.2018 06:00:00 (CEST)Blois, Frankrijk (7245): Zonneschijnduur: 15.08.2018 06:00:00 - 21.08.2018 06:00:00 (CEST)Blois, Frankrijk (7245): neerslag: 15.08.2018 06:00:00 - 21.08.2018 06:00:00 (CEST)
Datum & Tijd tt [°C] td [°C] tt 5cm [°C] tt -20cm [°C] tt -100cm [°C] ff [km/u] ff [kn] fx [km/u] fx [kn] dd ppp [hPa] vv [km] sd [min] rr [mm]
21.08.2018 06:00:00 15,7 13,4 13,9 23,4 20,7 6 4 8 4 NNO 1020,8 20 0 0,0
21.08.2018 05:00:00 16,0 13,1 13,7 23,5 20,7 6 4 16 9 N 1021,0 20 0 0,0
21.08.2018 04:00:00 15,7 13,0 13,7 23,8 20,7 4 2 5 3 O 1021,2 20 0 0,0
21.08.2018 03:00:00 16,8 13,9 14,7 23,9 20,7 0 0 5 3 N 1021,4 20 0 0,0
21.08.2018 02:00:00 17,4 14,1 15,1 24,1 20,7 2 1 4 2 NO 1021,5 20 0 0,0
21.08.2018 01:00:00 18,0 14,1 15,7 24,2 20,7 3 1 4 2 ONO 1021,4 20 0 0,0
21.08.2018 00:00:00 19,7 14,3 16,9 24,3 20,7 2 1 9 5 N 1021,6 20 0 0,0
20.08.2018 23:00:00 22,5 14,3 20,9 24,4 20,7 6 4 11 6 ONO 1021,2 20 0 0,0
20.08.2018 22:00:00 23,5 15,3 21,5 24,4 20,7 3 2 6 4 NO 1020,7 20 0 0,0
20.08.2018 21:00:00 24,7 14,8 23,9 24,3 20,7 4 2 16 9 N 1020,4 20 0 0,0
20.08.2018 20:00:00 25,6 15,0 25,5 24,2 20,7 11 6 18 10 NNO 1020,0 20 0 0,0
20.08.2018 19:00:00 26,1 14,9 26,8 24,1 20,7 9 5 18 10 N 1020,0 20 0 0,0
20.08.2018 18:00:00 26,4 14,8 28,0 23,9 20,7 11 6 23 13 NNW 1020,5 20 0 0,0
20.08.2018 17:00:00 26,5 14,9 29,5 23,6 20,7 9 5 22 12 N 1020,8 20 24 0,0
20.08.2018 16:00:00 26,5 14,9 29,2 23,4 20,7 8 4 24 13 NO 1021,2 20 32 0,0
20.08.2018 15:00:00 25,4 14,8 29,1 23,1 20,6 13 7 29 16 NNW 1021,7 20 33 0,0
20.08.2018 14:00:00 24,9 15,0 29,0 23,0 20,6 15 8 29 15 NW 1021,9 20 19 0,0
20.08.2018 13:00:00 24,6 15,8 25,7 22,9 20,6 16 9 26 14 NNW 1022,1 20 22 0,0
20.08.2018 12:00:00 23,0 15,6 24,3 22,9 20,7 13 7 23 12 NNW 1022,2 20 4 0,0
20.08.2018 11:00:00 21,7 16,2 24,2 22,9 20,6 12 7 20 11 WNW 1022,6 20 20 0,0
20.08.2018 10:00:00 21,3 16,7 20,6 23,0 20,7 10 6 21 11 NW 1022,5 20 5 0,0
20.08.2018 09:00:00 19,3 16,7 19,0 23,1 20,7 12 7 18 10 NW 1022,4 20 0 0,0
20.08.2018 08:00:00 18,2 16,5 17,7 23,2 20,7 8 5 14 8 WNW 1022,2 20 0 0,0
20.08.2018 07:00:00 18,1 16,4 15,7 23,4 20,6 11 6 19 10 NW 1021,7 20 0 0,0
20.08.2018 06:00:00 16,6 15,1 15,1 23,6 20,7 10 5 13 7 WNW 1021,6 20 0 0,0
20.08.2018 05:00:00 16,2 14,4 14,6 23,8 20,7 6 4 9 5 W 1021,6 20 0 0,0
20.08.2018 04:00:00 16,2 13,9 14,4 23,9 20,7 4 2 7 4 W 1021,9 20 0 0,0
20.08.2018 03:00:00 16,5 13,8 15,0 24,1 20,7 0 0 9 5 N 1022,1 20 0 0,0
20.08.2018 02:00:00 17,9 13,8 16,9 24,3 20,6 7 4 15 8 NW 1022,3 20 0 0,0
20.08.2018 01:00:00 19,9 15,1 18,8 24,4 20,7 10 6 16 9 NW 1022,2 20 0 0,0
20.08.2018 00:00:00 20,8 14,0 18,9 24,6 20,7 11 6 20 11 NW 1022,1 20 0 0,0
19.08.2018 23:00:00 19,8 11,8 17,7 24,7 20,6 11 6 16 9 WNW 1021,9 20 0 0,0
19.08.2018 22:00:00 21,0 11,3 19,2 24,7 20,7 8 4 13 7 W 1021,5 20 0 0,0
19.08.2018 21:00:00 23,3 11,7 22,2 24,7 20,7 10 6 23 12 WNW 1021,1 20 36 0,0
19.08.2018 20:00:00 26,8 12,1 27,2 24,5 20,7 15 8 24 13 WNW 1020,7 20 52 0,0
19.08.2018 19:00:00 28,2 11,3 31,1 24,3 20,7 18 10 29 16 WNW 1020,6 20 60 0,0
19.08.2018 18:00:00 29,0 11,1 34,2 23,9 20,7 16 9 30 16 WNW 1020,8 20 60 0,0
19.08.2018 17:00:00 29,2 11,7 35,2 23,6 20,7 15 8 29 16 W 1021,2 20 60 0,0
19.08.2018 16:00:00 28,8 11,8 35,7 23,2 20,7 14 8 27 15 WZW 1021,4 20 60 0,0
19.08.2018 15:00:00 27,8 11,8 35,7 22,8 20,7 8 5 27 14 ZW 1022,0 20 60 0,0
19.08.2018 14:00:00 26,9 10,1 34,1 22,5 20,6 11 6 23 12 WNW 1022,4 20 60 0,0
19.08.2018 13:00:00 25,5 11,6 32,5 22,3 20,7 8 5 23 13 WNW 1022,8 20 60 0,0
19.08.2018 12:00:00 24,4 12,0 31,2 22,2 20,6 6 3 19 10 W 1023,5 20 60 0,0
19.08.2018 11:00:00 23,3 12,6 27,8 22,2 20,7 4 2 13 7 WZW 1023,7 20 60 0,0
19.08.2018 10:00:00 21,3 12,7 19,1 22,2 20,6 7 4 12 6 OZO 1023,8 20 60 0,0
19.08.2018 09:00:00 18,4 12,4 14,8 22,4 20,6 0 0 3 2 N 1023,9 20 60 0,0
19.08.2018 08:00:00 13,9 11,1 11,0 22,6 20,6 0 0 8 4 N 1023,9 20 31 0,0
19.08.2018 07:00:00 12,0 10,1 10,0 22,9 20,7 6 3 8 4 N 1023,9 20 0 0,0
19.08.2018 06:00:00 11,4 9,0 10,1 23,1 20,6 0 0 3 1 N 1023,8 20 0 0,0
19.08.2018 05:00:00 13,0 9,8 10,8 23,3 20,6 0 0 9 5 N 1023,9 20 0 0,0
19.08.2018 04:00:00 14,4 10,8 11,6 23,5 20,7 5 3 6 4 N 1024,1 20 0 0,0
19.08.2018 03:00:00 15,3 10,9 12,9 23,7 20,7 4 2 13 7 NNO 1023,9 20 0 0,0
19.08.2018 02:00:00 17,0 11,7 15,5 23,9 20,6 10 5 17 9 NNO 1023,8 20 0 0,0
19.08.2018 01:00:00 17,4 11,9 14,4 24,1 20,7 9 5 16 8 NNO 1023,8 20 0 0,0
19.08.2018 00:00:00 17,3 11,6 14,3 24,2 20,6 6 3 8 4 N 1023,8 20 0 0,0
18.08.2018 23:00:00 18,5 11,3 15,6 24,3 20,7 5 3 13 7 NNW 1023,6 20 0 0,0
18.08.2018 22:00:00 21,4 12,0 19,6 24,4 20,7 10 5 16 8 NNW 1023,3 20 0 0,0
18.08.2018 21:00:00 22,7 10,8 21,3 24,3 20,6 9 5 19 10 NW 1022,6 20 38 0,0
18.08.2018 20:00:00 24,8 10,6 25,1 24,1 20,6 8 5 17 9 WNW 1022,1 20 60 0,0
18.08.2018 19:00:00 25,8 9,6 30,4 23,8 20,6 8 4 19 10 NW 1022,1 20 60 0,0
18.08.2018 18:00:00 26,3 10,0 31,9 23,5 20,6 5 3 24 13 W 1022,2 20 60 0,0
18.08.2018 17:00:00 25,9 8,4 32,9 23,2 20,6 7 4 27 15 NW 1022,6 20 60 0,0
18.08.2018 16:00:00 25,8 9,6 32,7 22,8 20,6 4 2 27 14 NW 1023,0 20 60 0,0
18.08.2018 15:00:00 24,6 9,3 32,5 22,5 20,7 10 5 22 12 WNW 1023,5 20 60 0,0
18.08.2018 14:00:00 23,9 9,8 32,2 22,2 20,6 9 5 18 10 ZZW 1023,8 20 60 0,0
18.08.2018 13:00:00 22,5 10,0 25,6 21,9 20,6 9 5 16 9 ZZW 1024,3 20 49 0,0
18.08.2018 12:00:00 21,4 10,5 28,7 21,8 20,6 8 5 17 9 WZW 1024,7 20 60 0,0
18.08.2018 11:00:00 20,6 10,7 25,3 21,9 20,6 4 2 13 7 ZO 1025,0 20 60 0,0
18.08.2018 10:00:00 18,5 10,8 17,1 22,0 20,6 8 4 14 7 OZO 1024,9 20 60 0,0
18.08.2018 09:00:00 15,9 10,9 13,7 22,2 20,6 5 3 11 6 NNO 1024,8 20 60 0,0
18.08.2018 08:00:00 12,9 10,3 9,6 22,4 20,6 5 3 9 5 NNW 1024,7 20 38 0,0
18.08.2018 07:00:00 10,7 8,6 - - - 8 4 9 5 N 1024,5 20 - 0,0
18.08.2018 06:00:00 11,0 8,4 8,9 22,9 20,6 5 3 12 7 NNW 1024,3 20 0 0,0
18.08.2018 05:00:00 12,9 9,3 9,8 23,1 20,6 6 4 11 6 NNW 1024,2 20 0 0,0
18.08.2018 04:00:00 12,3 8,9 9,6 23,4 20,6 4 2 9 5 NNW 1024,4 20 0 0,0
18.08.2018 03:00:00 13,5 8,8 9,8 23,6 20,6 5 3 10 5 NNW 1024,2 20 0 0,0
18.08.2018 02:00:00 13,6 8,4 11,5 23,9 20,6 2 1 17 9 NNW 1024,2 20 0 0,0
18.08.2018 01:00:00 14,0 8,8 12,3 24,1 20,6 10 5 13 7 WNW 1023,8 20 0 0,0
18.08.2018 00:00:00 15,9 8,6 13,8 24,2 20,6 6 4 16 9 N 1023,3 20 0 0,0
17.08.2018 23:00:00 18,0 8,8 15,8 24,4 20,6 8 5 19 10 NNW 1022,8 20 0 0,0
17.08.2018 22:00:00 19,0 8,9 17,8 24,4 20,6 12 6 20 11 NW 1022,2 20 0 0,0
17.08.2018 21:00:00 21,1 8,7 19,9 24,4 20,6 13 7 20 11 NW 1021,4 20 40 0,0
17.08.2018 20:00:00 23,3 8,2 23,5 24,3 20,6 11 6 25 14 NNW 1020,8 20 60 0,0
17.08.2018 19:00:00 24,1 8,9 27,9 24,1 20,6 15 8 27 15 NW 1020,3 20 60 0,0
17.08.2018 18:00:00 24,3 8,7 25,9 23,8 20,6 13 7 26 14 NW 1020,2 20 49 0,0
17.08.2018 17:00:00 24,7 7,8 27,4 23,5 20,6 14 7 29 16 N 1020,3 20 49 0,0
17.08.2018 16:00:00 24,9 8,0 32,6 23,2 20,6 9 5 34 18 WNW 1020,6 20 57 0,0
17.08.2018 15:00:00 24,3 7,9 27,3 23,0 20,6 8 4 29 16 NNO 1020,9 19 55 0,0
17.08.2018 14:00:00 23,0 8,7 24,9 22,9 20,6 10 6 28 15 WNW 1021,0 20 53 0,0
17.08.2018 13:00:00 22,0 9,8 23,2 22,8 20,6 9 5 26 14 N 1021,3 20 38 0,0
17.08.2018 12:00:00 19,9 11,6 21,7 22,8 20,6 10 5 22 12 N 1021,3 20 25 0,0
17.08.2018 11:00:00 18,4 12,8 18,9 22,9 20,6 9 5 18 10 NNW 1021,2 20 0 0,0
17.08.2018 10:00:00 16,9 13,8 17,1 23,0 20,6 10 5 17 9 NNW 1020,6 20 0 0,0
17.08.2018 09:00:00 16,2 14,4 15,4 23,2 20,6 10 5 22 12 WNW 1020,2 20 0 0,0
17.08.2018 08:00:00 15,7 13,4 15,5 23,3 20,6 15 8 26 14 NNW 1019,6 8 0 0,0
17.08.2018 07:00:00 16,9 12,4 16,8 23,5 20,6 14 7 27 14 N 1018,9 20 0 0,0
17.08.2018 06:00:00 17,0 13,9 17,0 23,6 20,6 13 7 29 16 NNW 1017,8 20 0 0,0
17.08.2018 05:00:00 17,5 14,0 17,1 23,8 20,6 18 10 30 16 NW 1017,4 20 0 0,0
17.08.2018 04:00:00 18,1 13,8 17,7 23,9 20,6 13 7 26 14 NW 1017,3 20 0 0,0
17.08.2018 03:00:00 19,0 14,0 18,7 24,1 20,7 15 8 24 13 NNW 1016,8 20 0 0,0
17.08.2018 02:00:00 19,3 14,1 18,7 24,2 20,7 10 6 24 13 NNW 1016,4 20 0 0,0
17.08.2018 01:00:00 19,6 14,6 19,2 24,4 20,7 13 7 39 21 N 1016,3 20 0 0,0
17.08.2018 00:00:00 20,5 14,8 20,0 24,4 20,6 18 10 39 21 N 1015,8 20 0 0,0
16.08.2018 23:00:00 22,7 15,3 21,7 24,5 20,7 16 9 27 15 NNW 1014,7 20 0 0,0
16.08.2018 22:00:00 23,5 15,5 22,5 24,5 20,7 16 9 35 19 NW 1013,8 20 0 0,0
16.08.2018 21:00:00 25,3 13,2 24,5 24,4 20,7 14 8 24 13 NW 1012,8 20 2 0,0
16.08.2018 20:00:00 27,4 11,8 27,3 24,2 20,6 21 11 29 16 WNW 1012,3 20 38 0,0
16.08.2018 19:00:00 29,8 12,7 33,3 23,9 20,6 16 9 27 15 WNW 1012,3 20 60 0,0
16.08.2018 18:00:00 30,8 12,7 35,9 23,5 20,7 15 8 29 16 NW 1012,6 20 60 0,0
16.08.2018 17:00:00 30,8 11,7 38,0 23,1 20,6 13 7 24 13 W 1012,9 20 60 0,0
16.08.2018 16:00:00 30,7 12,1 38,2 22,7 20,7 12 7 26 14 ZW 1013,4 20 60 0,0
16.08.2018 15:00:00 30,2 12,1 37,8 22,3 20,7 9 5 22 12 W 1013,8 20 60 0,0
16.08.2018 14:00:00 29,1 12,5 36,5 21,9 20,7 6 4 18 10 ZZW 1014,3 20 60 0,0
16.08.2018 13:00:00 27,5 12,7 36,2 21,6 20,7 11 6 22 12 ZW 1015,0 20 60 0,0
16.08.2018 12:00:00 26,8 13,9 33,1 21,5 20,7 5 3 16 9 ZW 1015,6 20 60 0,0
16.08.2018 11:00:00 25,2 14,3 29,1 21,5 20,7 6 3 12 7 ZO 1015,9 16 60 0,0
16.08.2018 10:00:00 21,8 14,4 19,5 21,6 20,7 4 2 13 7 OZO 1016,4 20 60 0,0
16.08.2018 09:00:00 18,3 13,8 15,7 21,7 20,7 8 5 13 7 O 1016,8 20 60 0,0
16.08.2018 08:00:00 14,2 11,7 9,3 21,9 20,7 5 3 8 5 ONO 1017,1 20 31 0,0
16.08.2018 07:00:00 11,1 9,5 9,1 22,2 20,7 3 1 6 3 ONO 1017,6 20 0 0,0
16.08.2018 06:00:00 11,2 9,3 9,4 22,4 20,7 0 0 6 4 N 1017,6 20 0 0,0
16.08.2018 05:00:00 12,6 11,3 9,9 22,6 20,7 2 1 5 3 ONO 1017,9 20 0 0,0
16.08.2018 04:00:00 13,6 12,0 10,6 22,8 20,7 3 1 8 5 NNO 1018,3 20 0 0,0
16.08.2018 03:00:00 13,6 10,9 11,0 23,0 20,7 0 0 5 3 N 1018,7 20 0 0,0
16.08.2018 02:00:00 13,4 9,8 11,4 23,2 20,7 0 0 6 4 N 1019,1 20 0 0,0
16.08.2018 01:00:00 15,1 9,9 12,8 23,4 20,7 3 2 9 5 NNO 1019,2 20 0 0,0
16.08.2018 00:00:00 17,8 13,1 15,4 23,5 20,7 8 4 10 5 N 1019,1 20 0 0,0
15.08.2018 23:00:00 18,8 13,0 15,9 23,6 20,7 6 4 9 5 NNO 1019,1 20 0 0,0
15.08.2018 22:00:00 19,7 13,2 16,6 23,5 20,7 5 3 6 3 N 1019,1 20 0 0,0
15.08.2018 21:00:00 22,5 13,3 19,6 23,4 20,7 4 2 10 5 N 1018,8 20 11 0,0
15.08.2018 20:00:00 25,6 13,1 25,5 23,2 20,7 6 3 16 9 N 1018,7 20 60 0,0
15.08.2018 19:00:00 26,3 13,1 31,4 23,0 20,7 8 5 20 11 NW 1019,0 20 60 0,0
15.08.2018 18:00:00 26,4 12,8 33,9 22,6 20,7 7 4 17 9 NW 1019,5 20 60 0,0
15.08.2018 17:00:00 26,0 12,4 33,2 22,2 20,7 9 5 21 12 WNW 1020,0 20 60 0,0
15.08.2018 16:00:00 25,0 12,9 32,4 21,9 20,7 9 5 21 11 W 1020,5 20 60 0,0
15.08.2018 15:00:00 23,8 13,1 31,1 21,6 20,7 10 5 22 12 NNW 1021,1 20 60 0,0
15.08.2018 14:00:00 22,4 13,5 26,1 21,4 20,7 12 7 21 12 N 1021,7 20 45 0,0
15.08.2018 13:00:00 20,8 13,0 24,0 21,4 20,7 8 4 22 12 NW 1022,3 20 5 0,0
15.08.2018 12:00:00 20,1 13,5 22,5 21,3 20,7 8 5 18 10 WNW 1022,5 20 0 0,0
15.08.2018 11:00:00 19,6 13,5 21,4 21,4 20,8 11 6 17 9 WNW 1022,6 20 0 0,0
15.08.2018 10:00:00 18,7 13,8 18,7 21,4 20,7 6 4 13 7 N 1022,4 20 0 0,0
15.08.2018 09:00:00 16,9 14,0 15,6 21,6 20,7 9 5 12 7 NW 1022,4 20 0 0,0
15.08.2018 08:00:00 14,4 13,3 10,0 21,7 20,7 7 4 10 6 WNW 1022,2 20 11 0,0
15.08.2018 07:00:00 12,1 11,2 9,5 22,0 20,8 3 1 10 5 WNW 1021,9 14 0 0,0
15.08.2018 06:00:00 11,9 10,6 9,9 22,2 20,7 7 4 10 5 WNW 1021,7 20 0 0,0

tt = temperatuur
td = dauwpunt
tt 5cm = temperatuur 5cm
tt -20cm = temperatuur -20cm
tt -100cm = temperatuur -100cm
ff = windsnelheid
fx = windstoten
dd = windrichting
ppp = luchtdruk
vv = zicht
sd = Zonneschijnduur
rr = neerslag

Weerstations in de omgeving